Back to catalog

DIAMANT R/B

AliveUNKNOWN
NORAD 2017·ROCKET BODY·🇫🇷 France

Launched Feb 17, 1966 from Hammaguir Space Track Range

Loading…

Next Passes (next 24 hours)

TLE

FreshSource: Space-Track

Epoch: Sep 14, 2026, 09:57 UTC

1 02017U 66013B   26257.41479933  .00001018  00000-0  27151-3 0  9997
2 02017  34.0630  55.1066 1033230  65.7650 304.7406 12.93785031781337

Track DIAMANT R/B in real time with AllMySat

Download on the App Store